GW2644 Weather Reports


Display with metric or nautical units.
time (UTC)temp
F
wind
direction
speed
MPH
gust
MPH
rain 1hr
in
rain 24hr
in
rain mn
in
humidity
%
barometer
mb
20260904060949 68 270 0.0 0.0 0.00 0.00 0.00 86 1016.3
20260904060445 68 270 0.0 0.0 0.00 0.00 0.00 86 1016.4
20260904055940 69 270 0.0 0.0 0.00 0.00 0.00 86 1016.4
20260904055436 68 270 0.0 0.0 0.00 0.00 0.00 85 1016.3
20260904054932 69 270 0.0 0.0 0.00 0.00 0.00 85 1016.2
20260904054427 69 270 0.0 0.0 0.00 0.00 0.00 85 1016.2
20260904053923 69 270 0.0 0.0 0.00 0.00 0.00 85 1016.5
20260904053422 69 285 0.0 0.0 0.00 0.00 0.00 85 1016.4
20260904052917 69 246 0.0 0.0 0.00 0.00 0.00 84 1016.4
20260904052414 69 246 0.0 0.0 0.00 0.00 0.00 84 1016.4
20260904051910 69 246 0.0 0.0 0.00 0.00 0.00 84 1016.4
20260904051405 69 337 0.0 1.0 0.00 0.00 0.00 84 1016.5
20260904050901 69 270 0.0 1.0 0.00 0.00 0.00 84 1016.5
20260904050357 70 270 0.0 1.0 0.00 0.00 0.00 83 1016.3
20260904045857 69 261 0.0 0.0 0.00 0.00 0.00 83 1016.6
20260904045352 70 262 0.0 1.0 0.00 0.00 0.00 83 1016.4
20260904044851 70 270 0.0 2.0 0.00 0.00 0.00 83 1016.6
20260904044348 70 263 1.0 2.0 0.00 0.00 0.00 83 1016.3
20260904043844 70 270 0.0 3.0 0.00 0.00 0.00 83 1016.2
20260904043341 70 262 0.0 2.0 0.00 0.00 0.00 83 1016.5
20260904042835 70 254 0.0 2.0 0.00 0.00 0.00 83 1016.3
20260904042331 70 287 2.0 3.0 0.00 0.00 0.00 83 1016.2
20260904041826 71 261 0.0 2.0 0.00 0.00 0.00 83 1016.3
20260904041322 71 258 0.0 2.0 0.00 0.00 0.00 83 1016.2
20260904040818 71 261 0.0 2.0 0.00 0.00 0.00 82 1016.2
20260904040313 71 270 0.0 2.0 0.00 0.00 0.00 81 1016.1
20260904035809 71 270 0.0 1.0 0.00 0.00 0.00 81 1015.9
20260904035306 71 253 0.0 2.0 0.00 0.00 0.00 80 1016.0
20260904034804 71 255 0.0 3.0 0.00 0.00 0.00 79 1016.0
20260904034300 71 245 2.0 2.0 0.00 0.00 0.00 78 1015.9
20260904033755 71 257 0.0 1.0 0.00 0.00 0.00 76 1015.8
20260904033252 71 270 2.0 2.0 0.00 0.00 0.00 76 1015.7
20260904032748 72 270 1.0 3.0 0.00 0.00 0.00 74 1015.9
20260904032246 72 270 0.0 0.0 0.00 0.00 0.00 72 1015.7
20260904031741 72 251 2.0 3.0 0.00 0.00 0.00 72 1015.7
20260904031236 72 283 0.0 2.0 0.00 0.00 0.00 70 1015.5
20260904030726 72 254 1.0 3.0 0.00 0.00 0.00 70 1015.6
20260904030222 72 255 1.0 3.0 0.00 0.00 0.00 69 1015.6
20260904025719 72 264 0.0 2.0 0.00 0.00 0.00 69 1015.6
20260904025213 73 252 2.0 2.0 0.00 0.00 0.00 69 1015.6
20260904024709 73 264 1.0 3.0 0.00 0.00 0.00 68 1015.4
20260904024204 73 270 0.0 3.0 0.00 0.00 0.00 68 1015.4
20260904023700 73 292 0.0 4.0 0.00 0.00 0.00 68 1015.5
20260904023156 73 285 3.0 3.0 0.00 0.00 0.00 67 1015.3
20260904022655 73 270 0.0 2.0 0.00 0.00 0.00 67 1015.4
20260904022152 74 312 2.0 3.0 0.00 0.00 0.00 67 1015.4
20260904021648 74 332 2.0 3.0 0.00 0.00 0.00 67 1015.1
20260904021142 74 262 2.0 4.0 0.00 0.00 0.00 68 1015.5
20260904020638 75 242 3.0 3.0 0.00 0.00 0.00 69 1015.3
20260904020127 75 259 3.0 3.0 0.00 0.00 0.00 68 1015.5
20260904015626 76 257 2.0 3.0 0.00 0.00 0.00 68 1015.2
20260904015125 77 270 0.0 1.0 0.00 0.00 0.00 67 1015.4
20260904014625 78 107 0.0 2.0 0.00 0.00 0.00 66 1015.4
20260904014120 77 97 0.0 2.0 0.00 0.00 0.00 66 1015.3
20260904013617 79 225 0.0 2.0 0.00 0.00 0.00 63 1015.2
20260904013113 79 229 0.0 2.0 0.00 0.00 0.00 62 1015.4
20260904012608 79 270 0.0 2.0 0.00 0.00 0.00 63 1015.4
20260904012107 79 342 0.0 1.0 0.00 0.00 0.00 63 1015.5
20260904011606 79 245 0.0 2.0 0.00 0.00 0.00 64 1015.3
20260904011102 79 270 0.0 1.0 0.00 0.00 0.00 63 1015.4
20260904010558 79 279 1.0 2.0 0.00 0.00 0.00 63 1015.3
20260904010054 80 96 0.0 2.0 0.00 0.00 0.00 63 1015.7
20260904005554 79 270 2.0 2.0 0.00 0.00 0.00 64 1015.4
20260904005049 79 90 0.0 2.0 0.00 0.00 0.00 64 1015.5
20260904004545 79 205 3.0 3.0 0.00 0.00 0.00 63 1015.6
20260904004040 79 71 0.0 2.0 0.00 0.00 0.00 63 1015.5
20260904003536 79 254 0.0 4.0 0.00 0.00 0.00 64 1015.3
20260904003032 80 206 2.0 2.0 0.00 0.00 0.00 63 1015.5
20260904002527 79 97 0.0 3.0 0.00 0.00 0.00 63 1015.3
20260904002027 80 249 1.0 3.0 0.00 0.00 0.00 61 1015.4
20260904001523 80 278 0.0 3.0 0.00 0.00 0.00 62 1015.4
20260904001021 80 264 0.0 2.0 0.00 0.00 0.00 61 1015.4
20260904000521 80 229 2.0 4.0 0.00 0.00 0.00 62 1015.7
20260904000018 79 246 1.0 6.0 0.00 0.00 0.00 62 1015.5
20260903235512 81 205 3.0 5.0 0.00 0.00 0.00 60 1015.4
20260903235007 81 206 0.0 2.0 0.00 0.00 0.00 59 1015.5
20260903234503 81 236 0.0 4.0 0.00 0.00 0.00 60 1015.6
20260903233959 80 228 2.0 3.0 0.00 0.00 0.00 61 1015.5
20260903233454 80 212 2.0 4.0 0.00 0.00 0.00 61 1015.6
20260903232944 81 212 0.0 5.0 0.00 0.00 0.00 59 1015.6
20260903232439 80 235 0.0 3.0 0.00 0.00 0.00 59 1015.7
20260903231938 80 203 3.0 3.0 0.00 0.00 0.00 58 1015.7
20260903231433 81 225 3.0 3.0 0.00 0.00 0.00 57 1015.8
20260903230928 80 213 0.0 2.0 0.00 0.00 0.00 57 1015.8
20260903230424 80 264 2.0 3.0 0.00 0.00 0.00 58 1015.7
20260903225920 81 206 3.0 3.0 0.00 0.00 0.00 57 1015.9
20260903225415 79 195 0.0 5.0 0.00 0.00 0.00 59 1015.9
20260903224912 78 218 2.0 3.0 0.00 0.00 0.00 60 1016.0
20260903224408 80 232 4.0 5.0 0.00 0.00 0.00 58 1016.0
20260903223904 78 231 2.0 3.0 0.00 0.00 0.00 60 1016.0
20260903223402 80 188 1.0 5.0 0.00 0.00 0.00 59 1016.4
20260903222856 79 204 0.0 5.0 0.00 0.00 0.00 61 1016.2
20260903222351 79 254 2.0 5.0 0.00 0.00 0.00 61 1016.2
20260903221845 78 252 0.0 4.0 0.00 0.00 0.00 62 1016.5
20260903221343 79 195 0.0 4.0 0.00 0.00 0.00 61 1016.4
20260903220842 79 270 0.0 4.0 0.00 0.00 0.00 60 1016.5
20260903220331 80 243 1.0 6.0 0.00 0.00 0.00 62 1016.6
20260903215829 78 225 2.0 6.0 0.00 0.00 0.00 62 1016.5
20260903215326 79 348 2.0 3.0 0.00 0.00 0.00 60 1016.5
20260903214823 79 227 3.0 3.0 0.00 0.00 0.00 57 1016.6
20260903214314 78 175 0.0 5.0 0.00 0.00 0.00 60 1016.6
20260903213808 78 262 1.0 5.0 0.00 0.00 0.00 61 1016.6
20260903213304 78 114 1.0 3.0 0.00 0.00 0.00 61 1016.4
20260903212800 80 209 3.0 5.0 0.00 0.00 0.00 58 1016.5
20260903212256 77 206 1.0 3.0 0.00 0.00 0.00 58 1016.6
20260903211754 78 248 0.0 4.0 0.00 0.00 0.00 59 1016.7
20260903211252 77 250 2.0 4.0 0.00 0.00 0.00 62 1016.6
20260903210747 78 214 2.0 5.0 0.00 0.00 0.00 63 1016.8
20260903210242 78 262 0.0 3.0 0.00 0.00 0.00 61 1016.8
20260903205736 77 355 0.0 4.0 0.00 0.00 0.00 63 1016.9
20260903205236 78 243 3.0 5.0 0.00 0.00 0.00 62 1016.9
20260903204731 77 331 1.0 3.0 0.00 0.00 0.00 62 1016.7
20260903204227 78 186 0.0 5.0 0.00 0.00 0.00 63 1017.1
20260903203722 79 232 0.0 3.0 0.00 0.00 0.00 61 1017.1
20260903203218 80 216 2.0 2.0 0.00 0.00 0.00 61 1017.0
20260903202712 80 203 3.0 5.0 0.00 0.00 0.00 61 1016.8
20260903202208 78 225 0.0 3.0 0.00 0.00 0.00 61 1016.9
20260903201707 77 212 2.0 4.0 0.00 0.00 0.00 63 1017.1
20260903201202 76 270 2.0 4.0 0.00 0.00 0.00 64 1017.1
20260903200656 77 237 0.0 2.0 0.00 0.00 0.00 64 1017.0
20260903200152 77 225 3.0 5.0 0.00 0.00 0.00 64 1017.2
20260903195647 75 341 2.0 3.0 0.00 0.00 0.00 66 1017.4
20260903195143 77 217 5.0 5.0 0.00 0.00 0.00 64 1017.4
20260903194638 77 201 2.0 5.0 0.00 0.00 0.00 64 1017.7
20260903194137 78 251 0.0 2.0 0.00 0.00 0.00 62 1017.4
20260903193633 80 222 3.0 3.0 0.00 0.00 0.00 63 1017.5
20260903193128 77 247 2.0 4.0 0.00 0.00 0.00 64 1017.6
20260903192625 78 250 0.0 3.0 0.00 0.00 0.00 63 1017.7
20260903192120 77 229 0.0 3.0 0.00 0.00 0.00 63 1017.7
20260903191616 75 356 0.0 3.0 0.00 0.00 0.00 64 1017.8
20260903191111 77 211 4.0 4.0 0.00 0.00 0.00 61 1017.8
20260903190611 76 240 0.0 3.0 0.00 0.00 0.00 62 1018.0
20260903190110 75 206 0.0 3.0 0.00 0.00 0.00 65 1017.8
20260903185606 74 290 0.0 5.0 0.00 0.00 0.00 64 1018.1
20260903185101 76 220 0.0 2.0 0.00 0.00 0.00 62 1018.3
20260903184557 74 262 0.0 1.0 0.00 0.00 0.00 65 1018.3
20260903184053 74 120 0.0 1.0 0.00 0.00 0.00 66 1018.4
20260903183551 74 216 0.0 9.0 0.00 0.00 0.00 66 1018.4
20260903183052 75 268 0.0 5.0 0.00 0.00 0.00 65 1018.4
20260903182550 78 212 2.0 2.0 0.00 0.00 0.00 62 1018.5
20260903182047 75 81 0.0 1.0 0.00 0.00 0.00 63 1018.6
20260903181545 73 352 0.0 2.0 0.00 0.00 0.00 66 1018.6
20260903181040 74 265 2.0 3.0 0.00 0.00 0.00 66 1018.4
20260903180536 75 204 0.0 4.0 0.00 0.00 0.00 65 1018.4
20260903180035 73 145 0.0 1.0 0.00 0.00 0.00 68 1018.5
20260903175534 74 209 2.0 3.0 0.00 0.00 0.00 67 1018.5
20260903175034 73 240 0.0 0.0 0.00 0.00 0.00 69 1018.5
20260903174529 73 243 0.0 2.0 0.00 0.00 0.00 69 1018.5
20260903174024 73 203 0.0 3.0 0.00 0.00 0.00 68 1018.6
20260903173518 72 173 0.0 1.0 0.00 0.00 0.00 69 1018.6
20260903173015 73 212 2.0 2.0 0.00 0.00 0.00 67 1018.6
20260903172509 75 352 0.0 2.0 0.00 0.00 0.00 66 1018.6
20260903172005 73 71 0.0 2.0 0.00 0.00 0.00 68 1018.6
20260903171459 70 262 0.0 2.0 0.00 0.00 0.00 70 1018.8
20260903170954 75 221 2.0 3.0 0.00 0.00 0.00 70 1018.7
20260903170449 72 83 1.0 3.0 0.00 0.00 0.00 71 1018.6
20260903165948 73 243 0.0 2.0 0.00 0.00 0.00 72 1018.5
20260903165442 72 106 0.0 0.0 0.00 0.00 0.00 74 1018.7
20260903164936 72 279 0.0 0.0 0.00 0.00 0.00 74 1018.7
20260903164426 71 279 0.0 0.0 0.00 0.00 0.00 74 1018.5
20260903163925 71 254 0.0 1.0 0.00 0.00 0.00 74 1018.5
20260903163422 72 270 0.0 2.0 0.00 0.00 0.00 73 1018.5
20260903162918 72 246 0.0 1.0 0.00 0.00 0.00 73 1018.5
20260903162414 73 234 0.0 2.0 0.00 0.00 0.00 73 1018.6
20260903161909 71 353 0.0 0.0 0.00 0.00 0.00 73 1018.6
20260903161404 71 131 0.0 0.0 0.00 0.00 0.00 75 1018.7
20260903160901 70 90 0.0 1.0 0.00 0.00 0.00 77 1018.7
20260903160359 70 213 0.0 2.0 0.00 0.00 0.00 78 1018.7
20260903155858 69 212 0.0 2.0 0.00 0.00 0.00 79 1018.9
20260903155353 69 234 1.0 2.0 0.00 0.00 0.00 79 1018.6
20260903154848 70 132 0.0 0.0 0.00 0.00 0.00 80 1018.7
20260903154345 70 132 0.0 0.0 0.00 0.00 0.00 80 1018.6
20260903153839 70 187 0.0 0.0 0.00 0.00 0.00 81 1018.8
20260903153335 70 261 0.0 0.0 0.00 0.00 0.00 81 1018.6
20260903152832 69 162 0.0 2.0 0.00 0.00 0.00 82 1018.7
20260903152327 68 132 0.0 0.0 0.00 0.00 0.00 82 1018.5
20260903151822 68 0 0.0 0.0 0.00 0.00 0.00 82 1018.8
20260903151317 68 0 0.0 0.0 0.00 0.00 0.00 82 1018.6
20260903150812 68 0 0.0 0.0 0.00 0.00 0.00 82 1018.7
20260903150311 68 249 0.0 0.0 0.00 0.00 0.00 82 1018.6
20260903145807 67 246 0.0 0.0 0.00 0.00 0.00 82 1018.6
20260903145305 68 103 0.0 0.0 0.00 0.00 0.00 83 1018.6
20260903144800 67 103 0.0 0.0 0.00 0.00 0.00 84 1018.4
20260903144256 66 103 0.0 1.0 0.00 0.00 0.00 85 1018.6
20260903143752 66 246 0.0 0.0 0.00 0.00 0.00 86 1018.3
20260903143248 65 246 0.0 0.0 0.00 0.00 0.00 87 1018.4
20260903142743 65 246 0.0 1.0 0.00 0.00 0.00 87 1018.3
20260903142239 65 151 0.0 0.0 0.00 0.00 0.00 89 1018.3
20260903141735 64 151 0.0 0.0 0.00 0.00 0.00 90 1018.1
20260903141230 64 151 0.0 0.0 0.00 0.00 0.00 90 1018.3
20260903140726 63 151 0.0 0.0 0.00 0.00 0.00 91 1017.9
20260903140220 63 151 0.0 0.0 0.00 0.00 0.00 90 1018.0
20260903135716 63 151 0.0 0.0 0.00 0.00 0.00 90 1018.0
20260903135212 63 151 0.0 0.0 0.00 0.00 0.00 90 1017.7
20260903134710 62 151 0.0 0.0 0.00 0.00 0.00 90 1017.8
20260903134207 63 151 0.0 0.0 0.00 0.00 0.00 90 1017.9
20260903133704 63 151 0.0 0.0 0.00 0.00 0.00 90 1018.1
20260903133200 63 151 0.0 0.0 0.00 0.00 0.00 90 1018.0
20260903132700 63 151 0.0 0.0 0.00 0.00 0.00 90 1017.9
20260903132200 63 151 0.0 0.0 0.00 0.00 0.00 90 1017.9
20260903131655 63 151 0.0 0.0 0.00 0.00 0.00 90 1017.9
20260903131154 63 151 0.0 0.0 0.00 0.00 0.00 90 1018.2
20260903130649 63 151 0.0 0.0 0.00 0.00 0.00 90 1017.8
20260903130144 63 151 0.0 0.0 0.00 0.00 0.00 90 1017.7
20260903125643 63 151 0.0 0.0 0.00 0.00 0.00 89 1017.9
20260903125138 63 151 0.0 0.0 0.00 0.00 0.00 89 1017.9
20260903124637 63 151 0.0 0.0 0.00 0.00 0.00 89 1018.0
20260903124131 63 337 0.0 0.0 0.00 0.00 0.00 89 1017.8
20260903123625 63 337 0.0 0.0 0.00 0.00 0.00 89 1017.7
20260903123124 63 337 0.0 1.0 0.00 0.00 0.00 90 1017.8
20260903122624 63 262 0.0 0.0 0.00 0.00 0.00 89 1017.9
20260903122119 63 262 0.0 0.0 0.00 0.00 0.00 89 1017.9
20260903121618 63 262 0.0 0.0 0.00 0.00 0.00 89 1018.0
20260903121114 63 262 0.0 0.0 0.00 0.00 0.00 89 1017.8
20260903120613 63 262 0.0 0.0 0.00 0.00 0.00 89 1017.9
20260903120108 63 262 0.0 0.0 0.00 0.00 0.00 89 1018.0
20260903115605 64 262 0.0 0.0 0.00 0.00 0.00 89 1018.0
20260903115101 63 262 0.0 0.0 0.00 0.00 0.00 89 1018.0
20260903114556 63 262 0.0 0.0 0.00 0.00 0.00 89 1018.1
20260903114052 63 262 0.0 0.0 0.00 0.00 0.00 89 1018.3
20260903113547 63 262 0.0 0.0 0.00 0.00 0.00 89 1018.2
20260903113043 64 262 0.0 0.0 0.00 0.00 0.00 89 1018.3
20260903112539 64 262 0.0 0.0 0.00 0.00 0.00 89 1018.2
20260903112033 64 262 0.0 0.0 0.00 0.00 0.00 89 1018.2
20260903111532 64 262 0.0 0.0 0.00 0.00 0.00 89 1017.9
20260903111029 64 262 0.0 0.0 0.00 0.00 0.00 89 1018.3
20260903110525 64 262 0.0 0.0 0.00 0.00 0.00 89 1018.2
20260903110024 64 262 0.0 0.0 0.00 0.00 0.00 89 1018.3
20260903105519 64 262 0.0 0.0 0.00 0.00 0.00 89 1018.2
20260903105014 64 262 0.0 0.0 0.00 0.00 0.00 89 1018.3
20260903104514 65 262 0.0 0.0 0.00 0.00 0.00 89 1018.4
20260903104010 65 262 0.0 0.0 0.00 0.00 0.00 89 1018.2
20260903103505 65 262 0.0 0.0 0.00 0.00 0.00 88 1018.2
20260903103002 65 262 0.0 0.0 0.00 0.00 0.00 88 1018.2
20260903102457 65 262 0.0 0.0 0.00 0.00 0.00 88 1018.5
20260903101955 65 262 0.0 0.0 0.00 0.00 0.00 87 1018.5
20260903101450 66 262 0.0 0.0 0.00 0.00 0.00 87 1018.4
20260903100946 66 262 0.0 0.0 0.00 0.00 0.00 86 1018.3
20260903100441 66 194 0.0 0.0 0.00 0.00 0.00 86 1018.5
20260903095938 66 194 0.0 1.0 0.00 0.00 0.00 86 1018.5
20260903095432 66 261 0.0 0.0 0.00 0.00 0.00 87 1018.2
20260903094928 66 261 0.0 0.0 0.00 0.00 0.00 86 1018.5
20260903094427 66 261 0.0 0.0 0.00 0.00 0.00 86 1018.4
20260903093923 66 261 0.0 0.0 0.00 0.00 0.00 86 1018.5
20260903093423 66 261 0.0 0.0 0.00 0.00 0.00 86 1018.7
20260903092919 66 195 0.0 0.0 0.00 0.00 0.00 86 1018.7
20260903092414 66 195 0.0 0.0 0.00 0.00 0.00 86 1018.6
20260903091912 66 195 0.0 0.0 0.00 0.00 0.00 86 1018.7
20260903091411 67 195 0.0 0.0 0.00 0.00 0.00 86 1018.8
20260903090906 67 195 0.0 0.0 0.00 0.00 0.00 86 1018.6
20260903090402 68 195 0.0 0.0 0.00 0.00 0.00 87 1018.6
20260903085900 65 270 0.0 0.0 0.00 0.00 0.00 90 1018.9
20260903085359 66 270 0.0 0.0 0.00 0.00 0.00 89 1018.9
20260903084858 66 270 0.0 0.0 0.00 0.00 0.00 89 1019.0
20260903084357 66 270 0.0 0.0 0.00 0.00 0.00 89 1019.0
20260903083853 67 270 0.0 0.0 0.00 0.00 0.00 89 1019.0
20260903083348 67 90 0.0 0.0 0.00 0.00 0.00 89 1019.0
20260903082847 68 90 0.0 0.0 0.00 0.00 0.00 89 1019.2
20260903082342 67 172 0.0 0.0 0.00 0.00 0.00 90 1018.8
20260903081837 66 172 0.0 0.0 0.00 0.00 0.00 89 1019.0
20260903081333 66 172 0.0 0.0 0.00 0.00 0.00 88 1019.0
20260903080829 67 172 0.0 0.0 0.00 0.00 0.00 88 1019.0
20260903080326 67 172 0.0 0.0 0.00 0.00 0.00 88 1019.0
20260903075825 67 172 0.0 0.0 0.00 0.00 0.00 87 1019.1
20260903075321 67 172 0.0 0.0 0.00 0.00 0.00 87 1019.1
20260903074820 68 172 0.0 0.0 0.00 0.00 0.00 87 1019.1
20260903074315 68 172 0.0 0.0 0.00 0.00 0.00 87 1019.0
20260903073811 68 172 0.0 0.0 0.00 0.00 0.00 86 1019.1
20260903073306 68 172 0.0 0.0 0.00 0.00 0.00 85 1019.1
20260903072802 68 172 0.0 0.0 0.00 0.00 0.00 84 1019.1
20260903072258 69 172 0.0 0.0 0.00 0.00 0.00 83 1019.0
20260903071754 69 172 0.0 0.0 0.00 0.00 0.00 83 1019.0
20260903071249 69 172 0.0 0.0 0.00 0.00 0.00 83 1019.1
20260903070744 69 172 0.0 0.0 0.00 0.00 0.00 83 1018.9
20260903070240 68 172 0.0 0.0 0.00 0.00 0.00 82 1019.0
20260903065735 69 174 0.0 0.0 0.00 0.00 0.00 80 1019.1
20260903065234 69 174 0.0 0.0 0.00 0.00 0.00 79 1019.1
20260903064733 70 174 0.0 0.0 0.00 0.00 0.00 80 1019.0
20260903064229 69 174 0.0 0.0 0.00 0.00 0.00 80 1019.0
20260903063725 69 174 0.0 0.0 0.00 0.00 0.00 79 1019.1
20260903063225 70 174 0.0 0.0 0.00 0.00 0.00 78 1018.9
20260903062715 69 174 0.0 0.0 0.00 0.00 0.00 79 1018.9
20260903062214 69 174 0.0 0.0 0.00 0.00 0.00 78 1019.1
20260903061711 70 174 0.0 0.0 0.00 0.00 0.00 77 1018.8